Location: Brad
(46.1333°N, 22.7833°E)
Time: 09:58:27
(UTC+00:00)

Cosmos 1763 Rocket - Pass Details

Date: 03 February 2023
Orbit: 733 x 778 km, 74.0° (Epoch: 20 March)

Event Time Altitude Azimuth Distance (km) Brightness Sun altitude
Rises 16:37:06 0° 339° (NNW) 3,227 6.9 -10.8°
Reaches altitude 10° 16:39:30 10° 340° (NNW) 2,290 6.1 -11.2°
Maximum altitude 16:44:42 79° 67° (ENE) 768 3.4 -12.1°
Drops below altitude 10° 16:49:47 10° 155° (SSE) 2,245 5.8 -13.0°
Sets 16:52:07 0° 157° (SSE) 3,159 6.5 -13.4°
